WMT31AT LROP-LGIR

Flight info

Callsign WMT31AT
Flight time 1h 32m
Altitude 30000
Route LROP/26L POLU1M POLUN DCT DELIN DCT NEVAL DCT SOSIR DCT PEXAN DCT NAVUS NAVU1B LGIR/GONSO/R27
Aircraft A320/M-SDE3FGHIRWY/LB1

Departure

Time 2026-05-05 14:07
Airport Bucharest Henri Coandă International Airport (LROP)

Arrival

Time 2026-05-05 15:40
Airport Heraklion International Nikos Kazantzakis Airport (LGIR)
Time Latitude Longitude Altitude Speed Heading
2026-05-05 13:28 44.57022 26.08078 317 ft 0 kts 354°
2026-05-05 13:53 44.57016 26.08079 315 ft 3 kts 354°
2026-05-05 13:53 44.56999 26.08081 313 ft 3 kts 354°
2026-05-05 13:53 44.56981 26.08084 312 ft 3 kts 354°
2026-05-05 13:54 44.56964 26.08086 314 ft 3 kts 357°
2026-05-05 13:54 44.56948 26.08092 313 ft 2 kts 352°
2026-05-05 13:54 44.56932 26.08087 312 ft 2 kts 63°
2026-05-05 13:54 44.56929 26.08065 313 ft 2 kts 94°
2026-05-05 13:55 44.56930 26.08053 310 ft 0 kts 91°
2026-05-05 13:58 44.56930 26.08056 313 ft 2 kts 90°
2026-05-05 13:58 44.56933 26.08096 313 ft 6 kts 83°
2026-05-05 13:58 44.56940 26.08165 314 ft 9 kts 83°
2026-05-05 13:59 44.56975 26.08380 314 ft 14 kts 38°
2026-05-05 13:59 44.57078 26.08377 316 ft 16 kts 354°
2026-05-05 14:00 44.57250 26.08490 318 ft 16 kts 30°
2026-05-05 14:00 44.57366 26.08484 319 ft 17 kts 354°
2026-05-05 14:00 44.57485 26.08504 318 ft 18 kts 47°
2026-05-05 14:00 44.57507 26.08687 320 ft 20 kts 85°
2026-05-05 14:01 44.57525 26.08896 319 ft 23 kts 84°
2026-05-05 14:01 44.57542 26.09130 318 ft 25 kts 84°
2026-05-05 14:01 44.57561 26.09386 318 ft 27 kts 83°
2026-05-05 14:01 44.57579 26.09623 318 ft 25 kts 84°
2026-05-05 14:02 44.57596 26.09871 317 ft 27 kts 84°
2026-05-05 14:02 44.57617 26.10137 317 ft 28 kts 84°
2026-05-05 14:02 44.57637 26.10422 316 ft 30 kts 84°
2026-05-05 14:02 44.57657 26.10723 315 ft 32 kts 84°
2026-05-05 14:03 44.57677 26.10964 314 ft 19 kts 82°
2026-05-05 14:03 44.57695 26.11163 314 ft 22 kts 85°
2026-05-05 14:03 44.57708 26.11383 313 ft 24 kts 85°
2026-05-05 14:03 44.57727 26.11619 311 ft 26 kts 83°
2026-05-05 14:04 44.57748 26.11879 313 ft 27 kts 84°
2026-05-05 14:04 44.57760 26.12042 312 ft 15 kts 84°
2026-05-05 14:04 44.57772 26.12200 312 ft 17 kts 84°
2026-05-05 14:04 44.57786 26.12377 311 ft 19 kts 84°
2026-05-05 14:05 44.57801 26.12573 311 ft 22 kts 84°
2026-05-05 14:05 44.57819 26.12794 310 ft 24 kts 81°
2026-05-05 14:05 44.57891 26.12841 309 ft 0 kts 329°
2026-05-05 14:05 44.57892 26.12840 309 ft 1 kts 329°
2026-05-05 14:06 44.57923 26.12813 309 ft 7 kts 326°
2026-05-05 14:06 44.57973 26.12760 310 ft 10 kts 311°
2026-05-05 14:06 44.57982 26.12660 309 ft 11 kts 263°
2026-05-05 14:06 44.57965 26.12465 311 ft 47 kts 264°
2026-05-05 14:07 44.57905 26.11700 314 ft 108 kts 263°
2026-05-05 14:07 44.57802 26.10412 320 ft 156 kts 263°
2026-05-05 14:07 44.57683 26.08852 779 ft 160 kts 263°
2026-05-05 14:07 44.57588 26.07236 1271 ft 171 kts 265°
2026-05-05 14:08 44.57472 26.05563 1795 ft 178 kts 262°
2026-05-05 14:08 44.57312 26.03728 2046 ft 201 kts 256°
2026-05-05 14:08 44.56642 26.01892 2215 ft 229 kts 230°
2026-05-05 14:08 44.55659 25.99981 2577 ft 252 kts 237°
2026-05-05 14:09 44.54773 25.97811 2962 ft 260 kts 241°
2026-05-05 14:09 44.53926 25.95569 3332 ft 260 kts 242°
2026-05-05 14:09 44.53077 25.93316 3788 ft 263 kts 242°
2026-05-05 14:09 44.52201 25.91040 4289 ft 268 kts 242°
2026-05-05 14:10 44.51293 25.88736 4803 ft 272 kts 242°
2026-05-05 14:10 44.50359 25.86412 5287 ft 276 kts 242°
2026-05-05 14:10 44.49404 25.84067 5762 ft 278 kts 242°
2026-05-05 14:10 44.48434 25.81702 6268 ft 282 kts 242°
2026-05-05 14:11 44.47447 25.79310 6756 ft 285 kts 242°
2026-05-05 14:11 44.46452 25.76899 7246 ft 288 kts 242°
2026-05-05 14:11 44.45448 25.74463 7742 ft 290 kts 242°
2026-05-05 14:11 44.44434 25.72003 8243 ft 293 kts 242°
2026-05-05 14:12 44.43412 25.69529 8754 ft 295 kts 242°
2026-05-05 14:12 44.42379 25.67034 9271 ft 298 kts 242°
2026-05-05 14:12 44.41339 25.64518 9793 ft 300 kts 242°
2026-05-05 14:12 44.40284 25.61971 10266 ft 307 kts 242°
2026-05-05 14:13 44.39175 25.59287 10484 ft 330 kts 242°
2026-05-05 14:13 44.37991 25.56422 10781 ft 347 kts 242°
2026-05-05 14:13 44.36765 25.53471 11354 ft 354 kts 242°
2026-05-05 14:13 44.35518 25.50478 11975 ft 359 kts 242°
2026-05-05 14:14 44.34253 25.47442 12604 ft 364 kts 242°
2026-05-05 14:14 44.32973 25.44371 13272 ft 366 kts 242°
2026-05-05 14:14 44.31687 25.41291 13961 ft 369 kts 242°
2026-05-05 14:14 44.30386 25.38184 14551 ft 372 kts 242°
2026-05-05 14:15 44.29074 25.35053 15132 ft 375 kts 242°
2026-05-05 14:15 44.27752 25.31897 15717 ft 378 kts 242°
2026-05-05 14:15 44.26370 25.28754 16300 ft 382 kts 235°
2026-05-05 14:15 44.24577 25.26003 16872 ft 387 kts 221°
2026-05-05 14:16 44.22347 25.23870 17455 ft 391 kts 207°
2026-05-05 14:16 44.19809 25.22497 18018 ft 394 kts 193°
2026-05-05 14:16 44.17099 25.21965 18559 ft 395 kts 181°
2026-05-05 14:16 44.14340 25.21827 19086 ft 398 kts 181°
2026-05-05 14:17 44.11560 25.21685 19625 ft 401 kts 181°
2026-05-05 14:17 44.08758 25.21539 20165 ft 404 kts 181°
2026-05-05 14:17 44.05978 25.21392 20689 ft 407 kts 181°
2026-05-05 14:17 44.03096 25.21239 21170 ft 411 kts 181°
2026-05-05 14:18 44.00229 25.21084 21678 ft 414 kts 181°
2026-05-05 14:18 43.97341 25.20927 22186 ft 417 kts 181°
2026-05-05 14:18 43.94433 25.20768 22682 ft 420 kts 181°
2026-05-05 14:18 43.91507 25.20607 23182 ft 423 kts 181°
2026-05-05 14:19 43.88593 25.20448 23653 ft 426 kts 181°
2026-05-05 14:19 43.85628 25.20290 24054 ft 428 kts 181°
2026-05-05 14:19 43.82640 25.20133 24452 ft 431 kts 181°
2026-05-05 14:19 43.79592 25.19974 24853 ft 434 kts 182°
2026-05-05 14:20 43.76610 25.19818 25225 ft 436 kts 182°
2026-05-05 14:20 43.73572 25.19658 25612 ft 438 kts 182°
2026-05-05 14:20 43.70515 25.19498 25974 ft 441 kts 182°
2026-05-05 14:20 43.67438 25.19334 26331 ft 444 kts 182°
2026-05-05 14:21 43.64343 25.19169 26686 ft 446 kts 182°
2026-05-05 14:21 43.61232 25.19005 26977 ft 449 kts 182°
2026-05-05 14:21 43.58113 25.18843 27017 ft 449 kts 182°
2026-05-05 14:21 43.54994 25.18682 27016 ft 449 kts 182°
2026-05-05 14:22 43.51866 25.18521 27236 ft 451 kts 182°
2026-05-05 14:22 43.48722 25.18356 27604 ft 453 kts 182°
2026-05-05 14:22 43.45559 25.18187 27948 ft 456 kts 182°
2026-05-05 14:22 43.42381 25.18015 28286 ft 459 kts 182°
2026-05-05 14:23 43.39180 25.17839 28635 ft 461 kts 182°
2026-05-05 14:23 43.35967 25.17666 28960 ft 464 kts 182°
2026-05-05 14:23 43.32735 25.17496 29291 ft 466 kts 182°
2026-05-05 14:23 43.29482 25.17328 29617 ft 469 kts 182°
2026-05-05 14:24 43.26216 25.17164 29947 ft 471 kts 182°
2026-05-05 14:24 43.22962 25.16997 30020 ft 462 kts 182°
2026-05-05 14:24 43.16618 25.16663 30042 ft 453 kts 182°
2026-05-05 14:25 43.10324 25.16368 30017 ft 453 kts 182°
2026-05-05 14:25 43.04019 25.16205 30027 ft 453 kts 181°
2026-05-05 14:26 42.97719 25.16096 30036 ft 453 kts 181°
2026-05-05 14:26 42.91416 25.15966 30026 ft 453 kts 181°
2026-05-05 14:27 42.85102 25.15811 30022 ft 454 kts 182°
2026-05-05 14:27 42.78778 25.15646 30031 ft 455 kts 182°
2026-05-05 14:28 42.72444 25.15478 30022 ft 455 kts 182°
2026-05-05 14:28 42.66105 25.15315 30018 ft 456 kts 182°
2026-05-05 14:29 42.59755 25.15157 30016 ft 457 kts 182°
2026-05-05 14:29 42.53395 25.15003 29999 ft 457 kts 182°
2026-05-05 14:30 42.47061 25.14842 29995 ft 459 kts 182°
2026-05-05 14:30 42.40668 25.14685 29994 ft 460 kts 182°
2026-05-05 14:31 42.34258 25.14523 29989 ft 461 kts 182°
2026-05-05 14:31 42.27837 25.14368 30025 ft 462 kts 182°
2026-05-05 14:32 42.21413 25.14221 30022 ft 462 kts 182°
2026-05-05 14:32 42.14986 25.14073 30014 ft 462 kts 182°
2026-05-05 14:33 42.08557 25.13908 30003 ft 462 kts 183°
2026-05-05 14:33 42.03209 25.13765 30002 ft 463 kts 183°
2026-05-05 14:34 41.96766 25.13607 30013 ft 463 kts 183°
2026-05-05 14:34 41.90321 25.13458 30015 ft 463 kts 183°
2026-05-05 14:35 41.83872 25.13304 30024 ft 463 kts 183°
2026-05-05 14:35 41.77431 25.13143 30028 ft 463 kts 183°
2026-05-05 14:36 41.70981 25.12987 30033 ft 463 kts 183°
2026-05-05 14:36 41.64534 25.12833 30035 ft 463 kts 183°
2026-05-05 14:37 41.58089 25.12680 30040 ft 463 kts 183°
2026-05-05 14:37 41.51636 25.12530 30036 ft 464 kts 183°
2026-05-05 14:38 41.45224 25.12372 30034 ft 464 kts 183°
2026-05-05 14:38 41.38721 25.12211 30017 ft 464 kts 183°
2026-05-05 14:39 41.32255 25.12055 30024 ft 465 kts 183°
2026-05-05 14:39 41.25834 25.11907 30040 ft 465 kts 183°
2026-05-05 14:40 41.19366 25.11754 30037 ft 465 kts 183°
2026-05-05 14:40 41.12898 25.11598 30036 ft 465 kts 184°
2026-05-05 14:41 41.06428 25.11448 30044 ft 465 kts 184°
2026-05-05 14:41 40.99946 25.11299 30049 ft 466 kts 183°
2026-05-05 14:42 40.93464 25.11147 30045 ft 466 kts 184°
2026-05-05 14:42 40.86975 25.10991 30048 ft 467 kts 184°
2026-05-05 14:43 40.80474 25.10851 30048 ft 467 kts 183°
2026-05-05 14:43 40.73963 25.10849 30054 ft 468 kts 182°
2026-05-05 14:44 40.67447 25.10949 30049 ft 468 kts 182°
2026-05-05 14:44 40.60929 25.11039 30051 ft 468 kts 182°
2026-05-05 14:45 40.54415 25.11085 30051 ft 468 kts 182°
2026-05-05 14:45 40.47900 25.11122 30051 ft 468 kts 182°
2026-05-05 14:46 40.41385 25.11174 30047 ft 468 kts 182°
2026-05-05 14:46 40.34867 25.11222 30046 ft 468 kts 182°
2026-05-05 14:47 40.28349 25.11271 30051 ft 468 kts 182°
2026-05-05 14:47 40.21833 25.11325 30054 ft 468 kts 182°
2026-05-05 14:48 40.15321 25.11367 30052 ft 468 kts 183°
2026-05-05 14:48 40.08805 25.11418 30050 ft 468 kts 183°
2026-05-05 14:49 40.02290 25.11477 30056 ft 468 kts 183°
2026-05-05 14:49 39.95779 25.11518 30055 ft 468 kts 183°
2026-05-05 14:50 39.89266 25.11556 30056 ft 468 kts 183°
2026-05-05 14:50 39.82759 25.11603 30052 ft 468 kts 183°
2026-05-05 14:51 39.76297 25.11652 30032 ft 467 kts 183°
2026-05-05 14:51 39.69801 25.11700 30053 ft 467 kts 183°
2026-05-05 14:52 39.63303 25.11752 30045 ft 467 kts 183°
2026-05-05 14:52 39.56815 25.11798 30044 ft 466 kts 183°
2026-05-05 14:53 39.50322 25.11840 30044 ft 466 kts 183°
2026-05-05 14:53 39.43832 25.11882 30045 ft 466 kts 183°
2026-05-05 14:54 39.37340 25.11944 30036 ft 467 kts 183°
2026-05-05 14:54 39.30848 25.11997 30049 ft 467 kts 183°
2026-05-05 14:55 39.24351 25.12041 30043 ft 467 kts 183°
2026-05-05 14:55 39.17849 25.12090 30059 ft 467 kts 183°
2026-05-05 14:56 39.11349 25.12137 30042 ft 467 kts 184°
2026-05-05 14:56 39.04848 25.12176 30050 ft 467 kts 184°
2026-05-05 14:57 38.98350 25.12219 30055 ft 467 kts 184°
2026-05-05 14:57 38.91851 25.12270 30048 ft 467 kts 184°
2026-05-05 14:58 38.85351 25.12319 30049 ft 467 kts 184°
2026-05-05 14:58 38.78855 25.12361 30051 ft 467 kts 184°
2026-05-05 14:59 38.72402 25.12404 30040 ft 467 kts 184°
2026-05-05 14:59 38.65901 25.12450 30042 ft 467 kts 184°
2026-05-05 15:00 38.60453 25.12496 30047 ft 467 kts 184°
2026-05-05 15:00 38.52891 25.12555 30040 ft 467 kts 184°
2026-05-05 15:01 38.46388 25.12596 30046 ft 467 kts 184°
2026-05-05 15:01 38.39888 25.12642 30053 ft 467 kts 184°
2026-05-05 15:02 38.33390 25.12800 30054 ft 468 kts 182°
2026-05-05 15:02 38.26887 25.13051 30050 ft 467 kts 182°
2026-05-05 15:03 38.20391 25.13292 30052 ft 467 kts 182°
2026-05-05 15:03 38.13894 25.13495 30062 ft 467 kts 183°
2026-05-05 15:04 38.07400 25.13680 30061 ft 467 kts 183°
2026-05-05 15:04 38.00909 25.13882 30067 ft 466 kts 182°
2026-05-05 15:05 37.91183 25.14194 30070 ft 466 kts 183°
2026-05-05 15:06 37.84701 25.14401 30072 ft 466 kts 183°
2026-05-05 15:06 37.78263 25.14597 30070 ft 466 kts 183°
2026-05-05 15:07 37.71777 25.14790 30071 ft 466 kts 183°
2026-05-05 15:07 37.65277 25.14993 30055 ft 466 kts 183°
2026-05-05 15:08 37.58778 25.15202 30064 ft 466 kts 183°
2026-05-05 15:08 37.52299 25.15402 30071 ft 467 kts 183°
2026-05-05 15:09 37.45824 25.15603 30068 ft 467 kts 183°
2026-05-05 15:09 37.39330 25.15804 30072 ft 467 kts 183°
2026-05-05 15:10 37.32831 25.16000 30076 ft 467 kts 183°
2026-05-05 15:10 37.26330 25.16199 30076 ft 467 kts 183°
2026-05-05 15:11 37.19878 25.16396 30064 ft 467 kts 183°
2026-05-05 15:11 37.13377 25.16596 30074 ft 467 kts 183°
2026-05-05 15:12 37.06872 25.16800 30082 ft 468 kts 183°
2026-05-05 15:12 37.00361 25.16996 30062 ft 468 kts 183°
2026-05-05 15:13 36.93850 25.17192 30074 ft 468 kts 183°
2026-05-05 15:13 36.87330 25.17386 30079 ft 471 kts 183°
2026-05-05 15:13 36.84014 25.17486 30084 ft 482 kts 183°
2026-05-05 15:14 36.80634 25.17587 30079 ft 488 kts 182°
2026-05-05 15:14 36.73805 25.17794 30075 ft 492 kts 182°
2026-05-05 15:15 36.66946 25.18021 30075 ft 494 kts 181°
2026-05-05 15:15 36.60079 25.18633 30082 ft 496 kts 178°
2026-05-05 15:16 36.53214 25.19527 30080 ft 497 kts 177°
2026-05-05 15:16 36.46336 25.20379 30080 ft 497 kts 178°
2026-05-05 15:17 36.39451 25.21122 30082 ft 496 kts 179°
2026-05-05 15:17 36.32566 25.21829 30070 ft 496 kts 179°
2026-05-05 15:18 36.25681 25.22555 30075 ft 497 kts 179°
2026-05-05 15:18 36.18806 25.23297 29630 ft 494 kts 179°
2026-05-05 15:18 36.15370 25.23667 28710 ft 496 kts 179°
2026-05-05 15:19 36.11945 25.24036 28038 ft 493 kts 179°
2026-05-05 15:19 36.08541 25.24405 27366 ft 489 kts 179°
2026-05-05 15:19 36.05188 25.24769 26777 ft 476 kts 179°
2026-05-05 15:19 36.01949 25.25123 26198 ft 460 kts 179°
2026-05-05 15:20 35.98837 25.25760 25639 ft 450 kts 165°
2026-05-05 15:20 35.95995 25.27281 25087 ft 442 kts 149°
2026-05-05 15:20 35.93596 25.29570 24544 ft 432 kts 136°
2026-05-05 15:20 35.91438 25.32082 24016 ft 422 kts 136°
2026-05-05 15:21 35.89324 25.34548 23481 ft 414 kts 136°
2026-05-05 15:21 35.87250 25.36976 22862 ft 409 kts 136°
2026-05-05 15:21 35.85203 25.39376 22248 ft 404 kts 136°
2026-05-05 15:21 35.83176 25.41751 21639 ft 401 kts 136°
2026-05-05 15:22 35.81843 25.43311 21255 ft 398 kts 136°
2026-05-05 15:22 35.79735 25.45490 20677 ft 393 kts 149°
2026-05-05 15:22 35.76443 25.47126 19936 ft 382 kts 173°
2026-05-05 15:22 35.74676 25.47328 19560 ft 374 kts 186°
2026-05-05 15:23 35.71338 25.46653 18847 ft 366 kts 198°
2026-05-05 15:23 35.69666 25.46168 18506 ft 364 kts 198°
2026-05-05 15:23 35.67191 25.45449 17532 ft 368 kts 198°
2026-05-05 15:23 35.64701 25.44726 16659 ft 367 kts 197°
2026-05-05 15:24 35.62225 25.44014 15827 ft 364 kts 197°
2026-05-05 15:24 35.59766 25.43311 15021 ft 361 kts 197°
2026-05-05 15:24 35.57327 25.42615 14238 ft 359 kts 196°
2026-05-05 15:24 35.54952 25.41917 13991 ft 338 kts 199°
2026-05-05 15:25 35.52671 25.41472 13984 ft 334 kts 180°
2026-05-05 15:25 35.50404 25.42074 13986 ft 336 kts 159°
2026-05-05 15:25 35.48420 25.43575 13990 ft 337 kts 135°
2026-05-05 15:25 35.46961 25.45810 13829 ft 336 kts 122°
2026-05-05 15:26 35.45742 25.48186 13508 ft 332 kts 117°
2026-05-05 15:26 35.44815 25.50277 13245 ft 329 kts 115°
2026-05-05 15:26 35.43746 25.52748 12936 ft 326 kts 115°
2026-05-05 15:26 35.43001 25.55328 12573 ft 318 kts 93°
2026-05-05 15:27 35.43141 25.57970 12192 ft 307 kts 68°
2026-05-05 15:27 35.44132 25.60209 11816 ft 295 kts 43°
2026-05-05 15:27 35.45752 25.61637 11446 ft 284 kts 18°
2026-05-05 15:27 35.47663 25.62006 11073 ft 277 kts 352°
2026-05-05 15:28 35.49464 25.61262 10714 ft 275 kts 326°
2026-05-05 15:28 35.50892 25.59711 10356 ft 275 kts 315°
2026-05-05 15:28 35.52186 25.57976 9999 ft 275 kts 313°
2026-05-05 15:28 35.53460 25.56222 9604 ft 275 kts 313°
2026-05-05 15:29 35.54734 25.54454 9102 ft 278 kts 313°
2026-05-05 15:29 35.56000 25.52684 8564 ft 272 kts 313°
2026-05-05 15:29 35.57228 25.50953 8059 ft 266 kts 313°
2026-05-05 15:29 35.58384 25.49222 7615 ft 259 kts 304°
2026-05-05 15:30 35.58920 25.47151 7287 ft 255 kts 275°
2026-05-05 15:30 35.58567 25.45050 6992 ft 251 kts 251°
2026-05-05 15:30 35.57831 25.43177 6926 ft 239 kts 247°
2026-05-05 15:30 35.57041 25.41327 6932 ft 243 kts 246°
2026-05-05 15:31 35.56220 25.39507 6770 ft 248 kts 243°
2026-05-05 15:31 35.55312 25.37678 6380 ft 253 kts 240°
2026-05-05 15:31 35.54085 25.36122 6048 ft 257 kts 214°
2026-05-05 15:31 35.52413 25.35380 5771 ft 258 kts 186°
2026-05-05 15:32 35.50655 25.35648 5483 ft 255 kts 157°
2026-05-05 15:32 35.49092 25.36565 5204 ft 244 kts 152°
2026-05-05 15:32 35.47606 25.37473 4926 ft 235 kts 153°
2026-05-05 15:32 35.46158 25.38357 4645 ft 230 kts 153°
2026-05-05 15:33 35.44728 25.39232 4365 ft 229 kts 152°
2026-05-05 15:33 35.43340 25.40149 4087 ft 223 kts 151°
2026-05-05 15:33 35.42007 25.41070 3856 ft 216 kts 150°
2026-05-05 15:33 35.40731 25.41960 3763 ft 208 kts 151°
2026-05-05 15:34 35.39472 25.42837 3653 ft 207 kts 151°
2026-05-05 15:34 35.38185 25.43555 3465 ft 200 kts 170°
2026-05-05 15:34 35.36848 25.43532 3283 ft 189 kts 198°
2026-05-05 15:34 35.35716 25.42818 3109 ft 181 kts 225°
2026-05-05 15:35 35.34963 25.41626 2953 ft 175 kts 248°
2026-05-05 15:35 35.34450 25.40273 2806 ft 175 kts 248°
2026-05-05 15:35 35.33934 25.38930 2664 ft 174 kts 249°
2026-05-05 15:35 35.33427 25.37609 2515 ft 174 kts 248°
2026-05-05 15:36 35.32949 25.36258 2377 ft 171 kts 257°
2026-05-05 15:36 35.32808 25.34836 2307 ft 167 kts 276°
2026-05-05 15:36 35.32913 25.33423 2297 ft 168 kts 277°
2026-05-05 15:36 35.33013 25.32003 2290 ft 165 kts 277°
2026-05-05 15:37 35.33107 25.30619 2169 ft 163 kts 276°
2026-05-05 15:37 35.33201 25.29236 1946 ft 162 kts 278°
2026-05-05 15:37 35.33294 25.27883 1697 ft 156 kts 278°
2026-05-05 15:37 35.33381 25.26597 1457 ft 146 kts 277°
2026-05-05 15:38 35.33462 25.25406 1258 ft 138 kts 277°
2026-05-05 15:38 35.33542 25.24248 1055 ft 136 kts 277°
2026-05-05 15:38 35.33621 25.23096 840 ft 135 kts 277°
2026-05-05 15:38 35.33699 25.21955 645 ft 134 kts 278°
2026-05-05 15:39 35.33775 25.20825 408 ft 133 kts 276°
2026-05-05 15:39 35.33859 25.19704 268 ft 132 kts 275°
2026-05-05 15:39 35.33930 25.18589 118 ft 125 kts 277°
2026-05-05 15:39 35.33998 25.17679 97 ft 84 kts 273°
2026-05-05 15:40 35.34036 25.17173 82 ft 35 kts 275°
2026-05-05 15:40 35.34042 25.17060 84 ft 7 kts 273°
2026-05-05 15:40 35.34047 25.16957 76 ft 15 kts 273°
2026-05-05 15:40 35.34029 25.16855 68 ft 0 kts 206°
2026-05-05 15:41 35.34012 25.16871 66 ft 10 kts 140°
2026-05-05 15:41 35.33964 25.16962 74 ft 13 kts 121°
2026-05-05 15:41 35.33940 25.17071 73 ft 13 kts 96°
2026-05-05 15:41 35.33933 25.17182 80 ft 13 kts 92°
2026-05-05 15:42 35.33928 25.17290 83 ft 12 kts 95°
2026-05-05 15:42 35.33919 25.17395 85 ft 13 kts 96°
2026-05-05 15:42 35.33902 25.17494 89 ft 11 kts 133°
2026-05-05 15:42 35.33856 25.17456 86 ft 11 kts 279°
2026-05-05 15:43 35.33862 25.17420 85 ft 0 kts 278°